星链-35911(STARLINK-35911)

导读

STARLINK-35911(NORAD编号68051)是美国SpaceX公司星链(Starlink)星座中的一颗低地球轨道通信卫星。作为星链卫星互联网项目的组成部分,它承担着为全球提供高速宽带互联网服务的任务,尤其覆盖偏远地区与海洋空域。 该卫星由猎鹰9号火箭发射入轨,运行在近地轨道,采用可自主机动规避设计,降低空间碰撞风险。星链星座截至2026年3月在轨活跃卫星已突破1万颗,STARLINK-35911是SpaceX持续扩张星座网络、完善全球覆盖的其中一环,助力实现全球全天候卫星互联网接入目标。

基本信息
目录编号:
68051
目录名称:
STARLINK-35911
国际标识:
2026-041M
轨道中心:
EARTH
卫星名称:
星链-35911
卫星全名:
星链-35911(STARLINK-35911)
卫星状态:
在轨 (已飞行103 天)
发射日期:
2026-03-02 UTC
国别 :
美国 (US)
星等 :
--
轨道信息
数据来源 国际轨道数据
星历时间: 2026-06-12T02:09:23+0800
1天前
查看轨道信息
半长轴: 6840.791km
偏心率: 0.000126
轨道倾角: 53.159°
近地点辐角 91.359°
升交点赤经 332.706°
平近点角 268.755°
近地点: 461.792km
远地点: 463.516km
周期: 93.847分钟
每日圈数: 15.344169
详细信息
固有亮度:
5
最大亮度:
2.5
卫星平台:
Starlink V1.0
覆盖范围:
全球
运营商:
太空探索技术公司
运营商所在国:
美国
制造商(研发单位):
太空探索技术公司
制造商所在国:
美国
使用方式:
暂无
卫星简介
Starlink 计划是 SpaceX 推出的全球卫星互联网项目,通过发射低轨道卫星,为全球尤其是偏远地区提供高速、低延迟的互联网服务。自 2019 年起,Starlink 已部署数千颗卫星,旨在缩小全球数字鸿沟,推动互联网普及。该项目还为军事、航空等行业提供通信支持,带来广泛经济效益。
2D轨道图
3D轨道图
轨道高度分析图
轨道倾角分析图
轨道综合分析图
查看轨道综合分析图